📊 Raw Sensor Data
Showing records 41026 to 41050 of 84,974 total
| ID | Distance (ft) | Battery V | Battery A | Int Temp (°F) | Int Humid (%) | Ext Temp (°F) | Solar V | RSSI | SNR | Time Stamp |
|---|---|---|---|---|---|---|---|---|---|---|
| 43961 | 15.1 | 4.12 | 0 | 87 | 48 | 81 | 5.10 | -72 | 7 | 06/19/2025 06:15 PM |
| 43960 | 15.0 | 3.95 | 0 | 87 | 49 | 80 | 5.10 | -72 | 7 | 06/19/2025 06:00 PM |
| 43959 | 15.0 | 4.04 | 0 | 87 | 49 | 78 | 5.10 | -71 | 7 | 06/19/2025 05:45 PM |
| 43958 | 15.1 | 3.95 | 0 | 89 | 48 | 81 | 5.10 | -70 | 8 | 06/19/2025 05:30 PM |
| 43957 | 15.1 | 3.96 | 0 | 89 | 47 | 82 | 5.10 | -72 | 7 | 06/19/2025 05:15 PM |
| 43956 | 15.1 | 3.95 | 0 | 89 | 47 | 80 | 5.10 | -71 | 7 | 06/19/2025 05:00 PM |
| 43955 | 15.1 | 3.99 | 0 | 90 | 47 | 82 | 5.10 | -69 | 8 | 06/19/2025 04:45 PM |
| 43954 | 15.1 | 3.95 | 0 | 91 | 45 | 83 | 5.10 | -72 | 7 | 06/19/2025 04:15 PM |
| 43953 | 15.1 | 3.95 | 0 | 92 | 45 | 84 | 5.10 | -71 | 8 | 06/19/2025 04:00 PM |
| 43952 | 15.1 | 3.95 | 0 | 92 | 44 | 84 | 5.10 | -71 | 7 | 06/19/2025 03:45 PM |
| 43951 | 15.1 | 3.99 | 0 | 92 | 44 | 84 | 5.10 | -72 | 8 | 06/19/2025 03:30 PM |
| 43950 | 15.1 | 3.95 | 0 | 92 | 44 | 83 | 5.10 | -72 | 8 | 06/19/2025 03:15 PM |
| 43949 | 15.1 | 3.95 | 0 | 91 | 44 | 85 | 5.10 | -72 | 7 | 06/19/2025 03:00 PM |
| 43948 | 15.1 | 3.96 | 0 | 91 | 43 | 85 | 5.10 | -72 | 7 | 06/19/2025 02:45 PM |
| 43947 | 15.1 | 3.95 | 0 | 91 | 42 | 84 | 5.10 | -70 | 7 | 06/19/2025 02:30 PM |
| 43946 | 15.1 | 4.12 | 0 | 90 | 42 | 86 | 5.10 | -71 | 8 | 06/19/2025 02:00 PM |
| 43945 | 15.1 | 3.95 | 0 | 89 | 42 | 83 | 5.10 | -72 | 8 | 06/19/2025 01:45 PM |
| 43944 | 15.1 | 3.95 | 0 | 88 | 42 | 84 | 5.10 | -70 | 7 | 06/19/2025 01:30 PM |
| 43943 | 15.1 | 3.95 | 0 | 86 | 42 | 82 | 5.10 | -71 | 7 | 06/19/2025 01:15 PM |
| 43942 | 15.1 | 3.95 | 0 | 84 | 43 | 81 | 5.10 | -70 | 7 | 06/19/2025 01:00 PM |
| 43941 | 15.1 | 3.95 | 0 | 82 | 43 | 80 | 5.10 | -71 | 8 | 06/19/2025 12:30 PM |
| 43940 | 15.1 | 3.95 | 0 | 81 | 43 | 79 | 5.10 | -71 | 7 | 06/19/2025 12:15 PM |
| 43939 | 15.1 | 4.11 | 0 | 80 | 43 | 81 | 5.10 | -71 | 7 | 06/19/2025 12:00 PM |
| 43938 | 15.1 | 4.00 | 0 | 79 | 44 | 79 | 5.10 | -70 | 7 | 06/19/2025 11:45 AM |
| 43937 | 15.1 | 3.95 | 0 | 78 | 44 | 78 | 5.10 | -71 | 8 | 06/19/2025 11:30 AM |